Date,TemperatureHighF,TemperatureAvgF,TemperatureLowF,DewpointHighF,DewpointAvgF,DewpointLowF,HumidityHigh,HumidityAvg,HumidityLow,PressureMaxIn,PressureMinIn,WindSpeedMaxMPH,WindSpeedAvgMPH,GustSpeedMaxMPH,PrecipitationSumIn
2013-4-1,66.8,51.5,40.7,48.8,39.8,18.5,91,67,40,30.04,29.75,16,3,16,0.00
2013-4-2,50.2,39.4,31.0,19.1,16.2,13.4,54,40,27,30.23,30.04,12,3,12,0.00
2013-4-3,51.5,40.2,31.7,19.7,15.3,11.7,48,37,25,30.43,30.22,13,4,13,0.00
2013-4-4,52.9,40.8,29.2,30.7,21.6,11.6,60,47,36,30.53,30.23,10,2,10,0.00
2013-4-5,70.2,50.2,40.1,43.5,31.8,22.6,85,54,21,30.23,29.84,10,2,10,0.08
2013-4-6,57.2,44.1,35.8,31.1,23.5,17.1,63,45,33,30.46,30.12,12,4,12,0.00
2013-4-7,60.5,48.7,35.8,47.1,37.7,25.8,73,66,57,30.45,30.15,15,3,15,0.00
2013-4-8,72.7,60.1,50.0,52.0,47.1,42.4,78,64,45,30.22,30.11,7,2,7,0.00
2013-4-9,87.7,70.7,54.4,56.3,50.4,44.6,82,53,25,30.13,30.05,10,2,10,0.00
2013-4-10,70.6,64.7,54.0,55.9,50.9,45.1,90,62,51,30.09,29.92,13,2,13,0.24
2013-4-11,62.3,56.2,47.2,56.3,51.6,42.9,91,85,73,30.15,29.91,9,2,9,0.05
2013-4-12,47.2,44.1,42.5,42.9,41.4,40.1,92,90,85,30.12,29.81,14,5,14,0.87
2013-4-13,59.6,49.2,41.0,48.4,42.2,38.3,91,78,54,30.12,29.85,8,2,8,0.08
2013-4-14,65.3,52.9,42.7,46.5,37.7,29.2,88,61,30,30.34,30.10,10,2,10,0.00
2013-4-15,65.7,52.2,46.1,47.3,39.3,33.5,78,62,49,30.51,30.33,8,2,8,0.00
2013-4-16,71.6,57.9,48.6,58.1,50.0,41.9,84,75,59,30.51,30.28,14,3,14,0.00
2013-4-17,76.3,61.9,51.5,54.5,50.2,40.4,88,67,42,30.43,30.24,9,2,9,0.02
2013-4-18,61.7,54.2,48.4,52.0,47.1,40.2,89,77,67,30.47,30.23,8,2,8,0.00
2013-4-19,75.8,63.4,53.6,65.7,58.1,50.5,91,83,70,30.23,29.81,14,3,14,0.00
2013-4-20,64.3,53.6,46.3,59.7,39.1,26.6,89,61,33,30.42,29.81,8,3,8,0.34
2013-4-21,61.6,47.2,37.6,36.4,28.5,21.2,65,48,39,30.75,30.42,10,3,10,0.00
2013-4-22,52.9,46.4,40.1,39.8,36.1,29.8,78,67,59,30.77,30.59,13,4,13,0.00
2013-4-23,50.9,46.3,43.6,43.8,40.0,36.3,86,79,75,30.60,30.24,17,4,17,0.00
2013-4-24,67.7,53.5,38.9,54.3,45.8,35.0,87,76,61,30.24,29.99,10,2,10,0.00
2013-4-25,68.2,56.0,46.8,51.3,39.7,32.6,84,56,34,30.41,30.03,8,3,8,0.01
2013-4-26,72.0,55.7,40.7,45.6,38.8,34.3,79,55,35,30.53,30.40,7,2,7,0.00
2013-4-27,72.7,56.7,43.7,42.4,37.6,33.7,73,51,30,30.56,30.44,7,1,7,0.00
2013-4-28,71.3,56.6,43.2,49.9,39.3,33.8,78,55,32,30.46,30.36,8,2,8,0.00
2013-4-29,56.5,54.4,51.1,50.8,48.1,44.0,86,79,65,30.38,30.30,7,2,7,0.19
2013-4-30,68.8,57.7,50.0,54.5,47.6,40.6,86,70,46,30.47,30.31,10,2,10,0.00